STARLINK-1947 (46797 NORAD) Tracking and Keplerian Element Data

This shows tracking and keplerian element data for the satellite.

Feedback or suggestion? Click here.




ElementValue
Catalog46797
NameSTARLINK-1947
Epoch Orbit1409
Epoch Day21.16668981
Epoch Year2021
RAAN86.9187
Inclination53.0536
Eccentricity0.0002953
Argument of Perigee6.5336
Mean Anonmoly68.1186
Mean Motion15.62697651
Decay Rate0.00051905
L11 46797U 20074BL 21021.16668981 .00051905 00000-0 57025-3 0 9999
L22 46797 53.0536 86.9187 0002953 6.5336 68.1186 15.62697651 14090

Live tracking and technical data element details for STARLINK-1947 (NORAD 46797). STARLINK-1947 can be tracked NOW for your location showing map with azimuth and elevation plus other details from your city location.

Track the satellite on the map from your city or location and see movement details for azimuth, elevation, latitude, longitude, range, height, and movement on the map or in text.







IsCatalogInMostPopularTable: catalog: 46797, numindb: 34
Update: records affected: 1



GetName: 46797 STARLINK-1947

Hit Count: updated at: Fri, 22 Jan 2021 18:15:16 GMT